| time (UTC) | temp C | wind direction | speed KPH | gust KPH | rain 1hr cm | rain 24hr cm | rain mn cm | humidity % | barometer mb |
| 20260906161609 | 25 | 297 | 3.2 | 11.3 | 0.00 | 0.00 | 0.00 | 74 | 1014.7 |
| 20260906160105 | 25 | 0 | 1.6 | 8.0 | 0.00 | 0.00 | 0.00 | 76 | 1014.8 |
| 20260906154600 | 24 | 307 | 1.6 | 12.9 | 0.00 | 0.00 | 0.00 | 77 | 1014.7 |
| 20260906153103 | 25 | 34 | 4.8 | 11.3 | 0.00 | 0.00 | 0.00 | 74 | 1014.9 |
| 20260906151608 | 25 | 326 | 1.6 | 9.7 | 0.00 | 0.00 | 0.00 | 76 | 1014.7 |
| 20260906150107 | 24 | 312 | 4.8 | 11.3 | 0.00 | 0.00 | 0.00 | 78 | 1014.5 |
| 20260906144626 | 25 | 321 | 3.2 | 8.0 | 0.00 | 0.00 | 0.00 | 78 | 1014.3 |
| 20260906143115 | 24 | 4 | 6.4 | 12.9 | 0.00 | 0.00 | 0.00 | 79 | 1014.4 |
| 20260906141605 | 24 | 345 | 3.2 | 12.9 | 0.00 | 0.00 | 0.00 | 83 | 1014.1 |
| 20260906140107 | 23 | 6 | 3.2 | 8.0 | 0.00 | 0.00 | 0.00 | 83 | 1014.0 |
| 20260906134600 | 23 | 274 | 3.2 | 9.7 | 0.00 | 0.00 | 0.00 | 85 | 1014.0 |
| 20260906133108 | 22 | 302 | 3.2 | 11.3 | 0.00 | 0.00 | 0.00 | 88 | 1013.9 |
| 20260906131603 | 21 | 337 | 3.2 | 12.9 | 0.00 | 0.00 | 0.00 | 94 | 1013.9 |
| 20260906130106 | 20 | 352 | 1.6 | 6.4 | 0.00 | 0.00 | 0.00 | 98 | 1013.9 |
| 20260906124605 | 19 | 335 | 1.6 | 4.8 | 0.00 | 0.00 | 0.00 | 99 | 1013.9 |
| 20260906123107 | 18 | 328 | 1.6 | 4.8 | 0.00 | 0.00 | 0.00 | 100 | 1013.9 |
| 20260906121556 | 17 | 0 | 0.0 | 1.6 | 0.00 | 0.00 | 0.00 | 100 | 1013.7 |
| 20260906120053 | 17 | 297 | 0.0 | 1.6 | 0.00 | 0.00 | 0.00 | 100 | 1013.6 |
| 20260906114606 | 16 | 0 | 0.0 | 0.0 | 0.00 | 0.00 | 0.00 | 100 | 1013.5 |
| 20260906113100 | 16 | 0 | 0.0 | 0.0 | 0.00 | 0.00 | 0.00 | 100 | 1013.3 |
| 20260906111556 | 16 | 0 | 0.0 | 0.0 | 0.00 | 0.00 | 0.00 | 100 | 1013.1 |
| 20260906110108 | 16 | 0 | 0.0 | 0.0 | 0.00 | 0.00 | 0.00 | 99 | 1013.1 |
| 20260906104605 | 16 | 0 | 0.0 | 0.0 | 0.00 | 0.00 | 0.00 | 99 | 1013.0 |
| 20260906103103 | 16 | 0 | 0.0 | 0.0 | 0.00 | 0.00 | 0.00 | 99 | 1012.8 |
| 20260906101600 | 16 | 0 | 0.0 | 0.0 | 0.00 | 0.00 | 0.00 | 99 | 1012.4 |
| 20260906094559 | 16 | 0 | 0.0 | 0.0 | 0.00 | 0.00 | 0.00 | 99 | 1012.2 |
| 20260906093118 | 16 | 0 | 0.0 | 0.0 | 0.00 | 0.00 | 0.00 | 99 | 1012.0 |
| 20260906091606 | 16 | 0 | 0.0 | 0.0 | 0.00 | 0.00 | 0.00 | 99 | 1011.9 |
| 20260906090122 | 16 | 0 | 0.0 | 0.0 | 0.00 | 0.00 | 0.00 | 99 | 1011.8 |
| 20260906084558 | 16 | 0 | 0.0 | 0.0 | 0.00 | 0.00 | 0.00 | 99 | 1011.8 |
| 20260906083103 | 17 | 0 | 0.0 | 0.0 | 0.00 | 0.00 | 0.00 | 99 | 1011.8 |
| 20260906081601 | 17 | 0 | 0.0 | 0.0 | 0.00 | 0.00 | 0.00 | 99 | 1011.5 |
| 20260906080104 | 17 | 0 | 0.0 | 0.0 | 0.00 | 0.00 | 0.00 | 99 | 1011.5 |
| 20260906074600 | 17 | 0 | 0.0 | 0.0 | 0.00 | 0.00 | 0.00 | 99 | 1011.4 |
| 20260906073114 | 17 | 0 | 0.0 | 0.0 | 0.00 | 0.00 | 0.00 | 99 | 1011.3 |
| 20260906071610 | 17 | 0 | 0.0 | 0.0 | 0.00 | 0.00 | 0.00 | 99 | 1011.3 |
| 20260906070059 | 17 | 0 | 0.0 | 0.0 | 0.00 | 0.00 | 0.00 | 99 | 1011.3 |
| 20260906064604 | 17 | 0 | 0.0 | 0.0 | 0.00 | 0.00 | 0.00 | 99 | 1011.3 |
| 20260906063103 | 17 | 0 | 0.0 | 0.0 | 0.00 | 0.00 | 0.00 | 99 | 1011.4 |
| 20260906061604 | 17 | 0 | 0.0 | 0.0 | 0.00 | 0.00 | 0.00 | 99 | 1011.4 |
| 20260906060100 | 17 | 0 | 0.0 | 0.0 | 0.00 | 0.00 | 0.00 | 99 | 1011.6 |
| 20260906054603 | 17 | 0 | 0.0 | 0.0 | 0.00 | 0.00 | 0.00 | 99 | 1011.7 |
| 20260906053058 | 17 | 0 | 0.0 | 1.6 | 0.00 | 0.00 | 0.00 | 99 | 1011.8 |
| 20260906051606 | 17 | 0 | 0.0 | 0.0 | 0.00 | 0.00 | 0.00 | 98 | 1012.0 |
| 20260906050132 | 17 | 0 | 0.0 | 1.6 | 0.00 | 0.00 | 0.00 | 98 | 1011.9 |
| 20260906044559 | 17 | 0 | 0.0 | 0.0 | 0.00 | 0.00 | 0.00 | 98 | 1012.2 |
| 20260906043111 | 17 | 0 | 0.0 | 0.0 | 0.00 | 0.00 | 0.00 | 98 | 1012.2 |
| 20260906041602 | 17 | 0 | 0.0 | 0.0 | 0.00 | 0.00 | 0.00 | 98 | 1012.2 |
| 20260906040112 | 17 | 0 | 0.0 | 0.0 | 0.00 | 0.00 | 0.00 | 97 | 1012.3 |
| 20260906034558 | 18 | 0 | 0.0 | 0.0 | 0.00 | 0.00 | 0.00 | 97 | 1012.5 |
| 20260906033108 | 18 | 0 | 0.0 | 0.0 | 0.00 | 0.00 | 0.00 | 97 | 1012.4 |
| 20260906031602 | 18 | 0 | 0.0 | 0.0 | 0.00 | 0.00 | 0.00 | 97 | 1012.5 |
| 20260906030134 | 18 | 0 | 0.0 | 0.0 | 0.00 | 0.00 | 0.00 | 96 | 1012.4 |
| 20260906024557 | 18 | 0 | 0.0 | 0.0 | 0.00 | 0.00 | 0.00 | 96 | 1012.4 |
| 20260906023124 | 18 | 0 | 0.0 | 0.0 | 0.00 | 0.00 | 0.00 | 96 | 1012.4 |
| 20260906021612 | 18 | 0 | 0.0 | 0.0 | 0.00 | 0.00 | 0.00 | 95 | 1012.3 |
| 20260906020107 | 19 | 0 | 0.0 | 0.0 | 0.00 | 0.00 | 0.00 | 95 | 1012.4 |
| 20260906014623 | 19 | 0 | 0.0 | 0.0 | 0.00 | 0.00 | 0.00 | 95 | 1012.2 |
| 20260906013101 | 20 | 0 | 0.0 | 0.0 | 0.00 | 0.00 | 0.00 | 95 | 1011.9 |
| 20260906011606 | 20 | 0 | 0.0 | 0.0 | 0.00 | 0.00 | 0.00 | 94 | 1011.8 |
| 20260906010058 | 20 | 0 | 0.0 | 0.0 | 0.00 | 0.00 | 0.00 | 94 | 1011.6 |
| 20260906004556 | 20 | 0 | 0.0 | 0.0 | 0.00 | 0.00 | 0.00 | 93 | 1011.5 |
| 20260906003109 | 20 | 0 | 0.0 | 0.0 | 0.00 | 0.00 | 0.00 | 92 | 1011.6 |
| 20260906001603 | 21 | 0 | 0.0 | 0.0 | 0.00 | 0.00 | 0.00 | 90 | 1011.5 |
| 20260906000059 | 21 | 0 | 0.0 | 0.0 | 0.00 | 0.00 | 0.00 | 88 | 1011.2 |
| 20260905234618 | 22 | 0 | 0.0 | 0.0 | 0.00 | 0.00 | 0.00 | 87 | 1011.0 |
| 20260905233103 | 22 | 0 | 0.0 | 0.0 | 0.00 | 0.00 | 0.00 | 84 | 1011.0 |
| 20260905231602 | 23 | 0 | 0.0 | 0.0 | 0.00 | 0.00 | 0.00 | 82 | 1011.1 |
| 20260905230100 | 24 | 298 | 0.0 | 1.6 | 0.00 | 0.00 | 0.00 | 77 | 1011.1 |
| 20260905224610 | 25 | 354 | 1.6 | 4.8 | 0.00 | 0.00 | 0.00 | 74 | 1010.9 |
| 20260905223102 | 25 | 295 | 1.6 | 6.4 | 0.00 | 0.00 | 0.00 | 75 | 1010.8 |
| 20260905221603 | 25 | 338 | 1.6 | 4.8 | 0.00 | 0.00 | 0.00 | 75 | 1010.7 |
| 20260905220056 | 25 | 351 | 1.6 | 4.8 | 0.00 | 0.00 | 0.00 | 74 | 1010.6 |
| 20260905214611 | 25 | 311 | 0.0 | 8.0 | 0.00 | 0.00 | 0.00 | 76 | 1010.4 |
| 20260905213111 | 26 | 340 | 4.8 | 9.7 | 0.00 | 0.00 | 0.00 | 74 | 1010.3 |
| 20260905211603 | 27 | 330 | 4.8 | 9.7 | 0.00 | 0.00 | 0.00 | 71 | 1010.1 |
| 20260905210101 | 27 | 295 | 0.0 | 3.2 | 0.00 | 0.00 | 0.00 | 75 | 1009.9 |
| 20260905204559 | 27 | 220 | 3.2 | 6.4 | 0.00 | 0.00 | 0.00 | 75 | 1009.6 |
| 20260905203105 | 27 | 0 | 0.0 | 4.8 | 0.00 | 0.00 | 0.00 | 76 | 1009.4 |
| 20260905201607 | 28 | 25 | 1.6 | 4.8 | 0.00 | 0.00 | 0.00 | 73 | 1009.4 |
| 20260905194603 | 26 | 5 | 0.0 | 1.6 | 0.00 | 0.00 | 0.00 | 79 | 1010.0 |
| 20260905193101 | 27 | 0 | 0.0 | 4.8 | 0.00 | 0.00 | 0.00 | 76 | 1010.4 |
| 20260905191613 | 27 | 0 | 0.0 | 6.4 | 0.00 | 0.00 | 0.00 | 71 | 1010.6 |
| 20260905184610 | 27 | 290 | 3.2 | 8.0 | 0.00 | 0.00 | 0.00 | 76 | 1011.0 |
| 20260905183103 | 26 | 344 | 4.8 | 8.0 | 0.00 | 0.00 | 0.00 | 71 | 1011.0 |
| 20260905181606 | 27 | 303 | 3.2 | 11.3 | 0.00 | 0.00 | 0.00 | 73 | 1011.0 |
| 20260905174617 | 27 | 300 | 0.0 | 11.3 | 0.00 | 0.00 | 0.00 | 69 | 1011.1 |
| 20260905173112 | 27 | 322 | 6.4 | 16.1 | 0.00 | 0.00 | 0.00 | 69 | 1011.1 |
| 20260905171602 | 27 | 327 | 6.4 | 11.3 | 0.00 | 0.00 | 0.00 | 70 | 1010.9 |
| 20260905170059 | 27 | 314 | 0.0 | 8.0 | 0.00 | 0.00 | 0.00 | 72 | 1011.0 |
| 20260905164605 | 27 | 303 | 3.2 | 11.3 | 0.00 | 0.00 | 0.00 | 74 | 1011.1 |
| 20260905163107 | 27 | 337 | 3.2 | 11.3 | 0.00 | 0.00 | 0.00 | 71 | 1011.2 |